Regional Weather Roundup
Issued by NWS Kansas City/Pleasant Hill, MO

Home | Current Version | Previous Version | Graphics & Text | Print | Product List | Glossary Off
Versions: 1 2 3 4 5 6 7 8 9 10 11 12 13 14 15 16 17 18 19 20 21 22 23 24 25 26 27 28 29 30 31 32 33 34 35 36 37 38 39 40 41 42 43 44 45 46 47 48 49 50

000
ASUS43 KEAX 290110
RWREAX

WEATHER ROUNDUP FOR EASTERN KANSAS AND NORTHWEST MISSOURI
NATIONAL WEATHER SERVICE KANSAS CITY/PLEASANT HILL MO
800 PM CDT FRI AUG 28 2015

KSZ040-057-103>105-MOZ028-029-037-043-290200-
...KANSAS CITY METROPOLITAN AREA...

CITY           SKY/WX    TMP DP  RH WIND       PRES   REMARKS
K.C. INTL      MOCLDY    73  65  75 S13       29.90S
K.C. DOWNTOWN  CLOUDY    75  67  76 S13       29.89F
LEES SUMMIT    CLOUDY    74  66  76 S10       29.91F
OLATHE - IXD   CLOUDY    72  67  84 S8        29.92S
OLATHE - OJC   CLOUDY    71  67  87 S7        29.91S
LAWRENCE       CLOUDY    74  66  76 S8        29.89S

$$

MOZ001>008-011>017-020>025-030>033-038>040-044>046-053-054-290200-
...NORTHERN AND CENTRAL MISSOURI...

CITY           SKY/WX    TMP DP  RH WIND       PRES   REMARKS
ST. JOSEPH     PTCLDY    75  66  73 S12       29.87R
MOSBY            N/A     73  66  78 S6        29.90S
WARRENSBURG    MOCLDY    72  64  78 CALM      29.93S
WHITEMAN AFB   MOCLDY    72  66  80 S7        29.92F
CLINTON          N/A     73  68  83 CALM      29.94S
SEDALIA        MOCLDY    73  66  78 SE10      29.95F
WARSAW         NOT AVBL
CHILLICOTHE      N/A     73  71  93 SE7       29.92S
KIRKSVILLE     MOCLDY    69  65  86 S9        29.93F

$$

MOZ041-047>049-056>058-063>065-088>090-097-290200-
...EASTERN AND SOUTHERN MISSOURI...

CITY           SKY/WX    TMP DP  RH WIND       PRES   REMARKS
ST. LOUIS INTL CLOUDY    77  59  53 SE14      30.00F
SPIRIT OF STL  CLOUDY    75  62  64 VRB3      29.98F
COLUMBIA       CLOUDY    71  65  81 SE8       29.98R
JEFFERSON CITY CLOUDY    75  63  66 E3        29.97R
ROLLA          CLOUDY    72  62  71 S10       29.99S
OSAGE BEACH    CLOUDY    73  63  68 SE7       29.97F
SPRINGFIELD    CLOUDY    76  62  62 SE14      29.97S
BRANSON        MOCLDY    75  63  64 SE8       30.01S
JOPLIN         CLOUDY    75  66  73 S6        29.95R
WEST PLAINS    CLEAR     70  60  70 CALM      30.05R

$$

IAZ060-094-KSZ022-034>040-054-083-096-NEZ052-066-093-290200-
...KANSAS...SOUTHEAST NEBRASKA AND IOWA...

CITY           SKY/WX    TMP DP  RH WIND       PRES   REMARKS
TOPEKA         MOCLDY    75  68  78 S7        29.87F
MANHATTAN      PTCLDY    76  69  79 N7        29.88R
EMPORIA        CLOUDY    75  68  78 S9        29.90R
CHANUTE        MOCLDY    74  69  85 S10       29.91F
WICHITA        PTCLDY    81  68  64 S12       29.89R
OMAHA          CLOUDY    67  65  93 NW15      29.89R FOG
LINCOLN        CLOUDY    72  63  73 N13       29.93R
FALLS CITY     CLOUDY    73  71  93 N5        29.89R
LAMONI         CLOUDY    74  66  76 S9        29.89R
DES MOINES     CLOUDY    73  67  81 S6        29.86R

$$




USA.gov is the U.S. government's official web portal to all federal, state and local government web resources and services.